User: anonymous   Login
Location: Gloden
(48.4833°N, 15.3167°E)
Time: 19:11:51
(UTC+00:00)
Language:

deb Tansei 3 - Orbit

View from above orbital plane
View from above orbital plane
View from above satellite
View from above satellite

Ground track
Ground track

The orbit data is extracted from the following two-line orbital elements,

1 09983U 77012G   21262.56927086  .00000065  00000-0  30550-3 0  9999
2 09983  65.5919 117.0966 1711408 340.9745  13.4068 10.75170265751223
Epoch (UTC): 19 September 2021 13:39:45
Eccentricity: 0.1711408
inclination: 65.5919°
perigee height: 809 km
apogee height: 3777 km
right ascension of ascending node: 117.0966°
argument of perigee: 340.9745°
revolutions per day: 10.75170265
mean anomaly at epoch: 13.4068°
orbit number at epoch: 75122

The dashed part of the orbit path shows where the satellite is in the earth's shadow,  

DLR